Погода в Прогрессе

Россия / Ставропольский край     44°33′25″N   41°51′47″E
темп.,
°C
ветер,
м/с
пор.,
м/с
влажн.,
%
обл.,
%
осадки,
мм/ч
давл.,
гПа
погр.,
м
9 мая, вс
вс900:00+13ююв2287100 0.0 100927
03:00+14зсз2384100 0.3 100962
06:00+12з1185100 0.1 101122
09:00+12сз5995100 2.8 1010660
12:00+9зсз91293100 5.7 1013834
15:00+5зсз91395100 8.1 1018905
18:00+5зюз61295100 6.8 1021843
21:00+5з71390100 7.3 1023722
10 мая, пн
пн1000:00+4з714875 0.0 1023472
03:00+4з614835 0.0 1023413
06:00+4з6138268 0.0 1023521
09:00+8зсз9116398 0.3 10221641
12:00+10зсз9115464 0.3 10212034
15:00+11зсз10125572 0.3 10192131
18:00+8зсз81375100 0.1 10201266
21:00+6з61375100 0.1 1020714
11 мая, вт
вт1100:00+4зюз51377100 0.0 1019516
03:00+4ю3675100 0.0 1017143
06:00+4ююв2469100 0.1 1018149
09:00+7ю2363100 0.2 1017409
12:00+12юв335298 0.0 10161096
15:00+14вюв3347100 0.0 10151918
18:00+12в476824 0.0 1016572
21:00+7в22865 0.0 101720
12 мая, ср
ср1200:00+5сз119298 0.0 101810
03:00+4юз119579 0.0 101810
06:00+5ююз11915 0.0 101956
09:00+11вюв33713 0.0 1017562
12:00+16в45598 0.0 10161145
15:00+18в56570 0.0 10151139
18:00+16в610711 0.0 1015568
21:00+11вюв411864 0.0 1015221
13 мая, чт
чт1300:00+9вюв35920 0.0 101575
03:00+8юв33920 0.0 101546
06:00+9юв34820 0.0 101687
09:00+17вюв456326 0.0 1014399
12:00+22в555414 0.0 1013705
15:00+23в665695 0.0 1013855
18:00+20в6127351 0.0 1013513
21:00+15вюв398885 0.0 1014164